Date String (YYYY-MM-DD hh:mm:ss) UTC,Instrument flags,Ambient pressure (hPa),Sample flow (lpm),Bypass flow (lpm),Sample temperature (°C),Ambient temperature (°C),ASC tube jacket temperature (°C),LED temperature (°C),Box temperature (°C),Sample RH (%),Span deviation,Mass concentration (μg/m³),Mass concentration (μg/m³),Mass concentration (μg/m³)
DateTimeUTC,F1_M11,P_M11,Q1_M11,Q2_M11,T1_M11,T2_M11,T3_M11,T4_M11,T5_M11,U1_M11,ZSPAN_M11,X0_M11,X2_M11,X1_M11
2023-02-02 10:00:00,,0828.2,4.96,0.00,22.6,21.1,00.0,31.5,24.4,08.8,0000.0,0013.87,0007.69,0006.92
2023-02-02 10:01:00,,0828.2,5.02,0.00,22.6,21.1,00.0,31.5,24.4,08.8,0000.0,0013.69,0007.57,0006.80
2023-02-02 10:02:00,,0828.2,5.00,0.00,22.6,21.1,00.0,31.5,24.4,08.9,0000.0,0013.56,0007.52,0006.72
2023-02-02 10:03:00,,0828.2,5.02,0.00,22.6,21.1,00.0,31.5,24.4,08.9,0000.0,0013.70,0007.63,0006.79
2023-02-02 10:04:00,,0828.2,4.98,0.00,22.6,21.0,00.0,31.5,24.4,08.9,0000.0,0013.75,0007.82,0006.99
2023-02-02 10:05:00,,0828.3,5.02,0.00,22.6,21.0,00.0,31.5,24.3,08.9,0000.0,0013.76,0007.89,0007.10
2023-02-02 10:06:00,,0828.4,5.02,0.00,22.6,21.0,00.0,31.5,24.3,08.8,0000.0,0013.65,0007.77,0007.00
2023-02-02 10:07:00,,0828.3,4.99,0.00,22.6,21.0,00.0,31.4,24.3,08.8,0000.0,0013.42,0007.60,0006.85
2023-02-02 10:08:00,,0828.3,5.01,0.00,22.6,21.0,00.0,31.4,24.3,08.9,0000.0,0013.12,0007.44,0006.72
2023-02-02 10:09:00,,0828.3,5.00,0.00,22.6,21.7,00.0,31.4,24.5,08.9,0000.0,0011.77,0007.31,0006.65
2023-02-02 10:10:00,,0828.4,5.00,0.00,22.7,22.7,00.0,31.4,24.8,08.9,0000.0,0011.42,0007.22,0006.60
2023-02-02 10:11:00,,0828.4,5.00,0.00,22.8,23.1,00.0,31.4,24.9,08.8,0000.0,0011.20,0007.07,0006.47
2023-02-02 10:12:00,,0828.4,4.99,0.00,22.8,22.7,00.0,31.5,24.8,08.8,0000.0,0010.87,0006.88,0006.31
2023-02-02 10:13:00,,0828.5,5.00,0.00,22.8,22.3,00.0,31.5,24.7,08.8,0000.0,0010.72,0006.74,0006.19
2023-02-02 10:14:00,,0828.5,4.99,0.00,22.8,22.0,00.0,31.6,24.7,08.8,0000.0,0010.57,0006.57,0006.07
2023-02-02 10:15:00,,0828.5,4.99,0.00,22.8,21.8,00.0,31.6,24.6,08.8,0000.0,0010.36,0006.38,0005.89
2023-02-02 10:16:00,,0828.5,5.00,0.00,22.8,21.7,00.0,31.6,24.6,08.8,0000.0,0010.11,0006.17,0005.67
2023-02-02 10:17:00,,0828.6,5.00,0.00,22.8,21.5,00.0,31.6,24.6,08.8,0000.0,0009.89,0006.02,0005.51
2023-02-02 10:18:00,,0828.4,5.01,0.00,22.8,21.4,00.0,31.6,24.6,08.9,0000.0,0009.86,0005.90,0005.38
2023-02-02 10:19:00,,0828.5,5.01,0.00,22.8,21.4,00.0,31.6,24.5,08.9,0000.0,0009.65,0005.74,0005.22
2023-02-02 10:20:00,,0828.5,4.97,0.00,22.8,21.3,00.0,31.6,24.5,08.9,0000.0,0009.34,0005.52,0005.02
2023-02-02 10:21:00,,0828.7,5.01,0.00,22.7,21.2,00.0,31.6,24.5,08.9,0000.0,0009.01,0005.27,0004.80
2023-02-02 10:22:00,,0828.7,4.99,0.00,22.7,21.1,00.0,31.6,24.5,08.9,0000.0,0009.00,0005.09,0004.65
2023-02-02 10:23:00,,0828.8,5.00,0.00,22.7,21.1,00.0,31.6,24.4,08.9,0000.0,0009.07,0005.02,0004.59
2023-02-02 10:24:00,,0829.1,5.00,0.00,22.7,21.0,00.0,31.6,24.4,08.9,0000.0,0009.22,0004.96,0004.51
2023-02-02 10:25:00,,0829.1,5.00,0.00,22.6,21.0,00.0,31.5,24.4,08.9,0000.0,0009.02,0004.91,0004.46
2023-02-02 10:26:00,,0829.1,5.00,0.00,22.6,20.9,00.0,31.5,24.3,08.9,0000.0,0009.03,0004.94,0004.48
2023-02-02 10:27:00,,0829.0,4.98,0.00,22.6,20.9,00.0,31.5,24.3,08.9,0000.0,0009.25,0005.06,0004.58
2023-02-02 10:28:00,,0829.1,4.99,0.00,22.6,20.9,00.0,31.5,24.3,09.0,0000.0,0009.35,0005.14,0004.68
2023-02-02 10:29:00,,0829.1,4.99,0.00,22.6,20.9,00.0,31.5,24.3,09.0,0000.0,0009.36,0005.22,0004.77
2023-02-02 10:30:00,,0829.1,5.02,0.00,22.6,20.9,00.0,31.5,24.3,09.0,0000.0,0009.52,0005.35,0004.91
2023-02-02 10:31:00,,0828.9,4.98,0.00,22.6,20.9,00.0,31.5,24.3,09.0,0000.0,0009.79,0005.54,0005.10
2023-02-02 10:32:00,,0828.7,5.00,0.00,22.6,21.4,00.0,31.4,24.4,09.0,0000.0,0010.15,0005.72,0005.25
2023-02-02 10:33:00,,0828.7,4.99,0.00,22.7,22.3,00.0,31.4,24.6,09.0,0000.0,0010.67,0005.86,0005.37
2023-02-02 10:34:00,,0828.8,4.99,0.00,22.8,23.0,00.0,31.4,24.8,08.9,0000.0,0010.66,0005.99,0005.51
2023-02-02 10:35:00,,0829.0,4.99,0.00,22.8,22.8,00.0,31.5,24.8,08.9,0000.0,0010.87,0006.16,0005.67
2023-02-02 10:36:00,,0829.2,4.98,0.00,22.8,22.4,00.0,31.5,24.7,08.9,0000.0,0011.04,0006.27,0005.79
2023-02-02 10:37:00,,0829.1,4.98,0.00,22.8,22.0,00.0,31.5,24.7,08.9,0000.0,0011.28,0006.37,0005.88
2023-02-02 10:38:00,,0829.2,5.00,0.00,22.8,21.8,00.0,31.6,24.6,08.9,0000.0,0011.40,0006.48,0005.98
2023-02-02 10:39:00,,0829.2,4.99,0.00,22.8,21.6,00.0,31.6,24.6,08.9,0000.0,0011.65,0006.61,0006.09
2023-02-02 10:40:00,,0829.2,5.02,0.00,22.8,21.5,00.0,31.6,24.6,09.0,0000.0,0012.10,0006.74,0006.19
2023-02-02 10:41:00,,0829.1,5.01,0.00,22.8,21.4,00.0,31.6,24.5,09.0,0000.0,0012.21,0006.87,0006.30
2023-02-02 10:42:00,,0828.9,4.99,0.00,22.8,21.4,00.0,31.6,24.5,09.0,0000.0,0012.32,0006.96,0006.36
2023-02-02 10:43:00,,0828.7,4.99,0.00,22.8,21.4,00.0,31.6,24.5,08.9,0000.0,0012.36,0006.99,0006.40
2023-02-02 10:44:00,,0828.8,4.99,0.00,22.8,21.4,00.0,31.6,24.5,08.9,0000.0,0011.97,0007.01,0006.42
2023-02-02 10:45:00,,0829.2,4.98,0.00,22.8,21.4,00.0,31.6,24.5,08.9,0000.0,0012.54,0007.15,0006.53
2023-02-02 10:46:00,,0829.2,4.99,0.00,22.7,21.4,00.0,31.6,24.5,09.0,0000.0,0012.55,0007.27,0006.62
2023-02-02 10:47:00,,0828.7,5.00,0.00,22.7,21.3,00.0,31.6,24.5,09.0,0000.0,0012.57,0007.36,0006.72
2023-02-02 10:48:00,,0828.9,5.03,0.00,22.7,21.2,00.0,31.6,24.5,08.9,0000.0,0012.40,0007.37,0006.76
2023-02-02 10:49:00,,0829.2,4.94,0.00,22.7,21.2,00.0,31.6,24.4,08.9,0000.0,0012.38,0007.35,0006.73
2023-02-02 10:50:00,,0828.8,5.07,0.00,22.7,21.2,00.0,31.6,24.4,08.9,0000.0,0012.27,0007.23,0006.64
2023-02-02 10:51:00,,0828.8,4.98,0.00,22.7,21.2,00.0,31.5,24.4,08.9,0000.0,0012.17,0007.08,0006.53
2023-02-02 10:52:00,,0828.9,5.01,0.00,22.7,21.1,00.0,31.5,24.4,08.9,0000.0,0012.18,0007.00,0006.44
2023-02-02 10:53:00,,0828.8,4.98,0.00,22.7,21.2,00.0,31.5,24.4,09.0,0000.0,0012.26,0006.92,0006.38
2023-02-02 10:54:00,,0828.9,5.05,0.00,22.7,21.1,00.0,31.5,24.4,09.0,0000.0,0012.55,0006.95,0006.40
2023-02-02 10:55:00,,0828.8,4.98,0.00,22.6,21.1,00.0,31.5,24.4,09.0,0000.0,0012.54,0006.96,0006.42
2023-02-02 10:56:00,,0829.1,4.98,0.00,22.6,21.1,00.0,31.5,24.4,09.0,0000.0,0012.25,0006.85,0006.32
2023-02-02 10:57:00,,0828.9,5.01,0.00,22.6,21.0,00.0,31.5,24.4,09.0,0000.0,0012.16,0006.71,0006.21
2023-02-02 10:58:00,,0829.1,5.01,0.00,22.6,21.1,00.0,31.5,24.4,09.0,0000.0,0011.98,0006.58,0006.10
2023-02-02 10:59:00,,0828.8,4.99,0.00,22.7,21.8,00.0,31.4,24.5,09.0,0000.0,0011.89,0006.49,0006.02
